Location: Aciu?a
(46.2833°N, 22.4500°E)
Time: 06:02:16
(UTC+00:00)

Cosmos 2219 Rocket - Pass Details

Date: 25 October 2021
Orbit: 826 x 848 km, 71.0° (Epoch: 04 December)

Event Time Altitude Azimuth Distance (km) Brightness Sun altitude
Rises 16:13:41 0° 145° (SE) 3,354 5.0 -8.8°
Reaches altitude 10° 16:18:04 10° 112° (ESE) 2,432 4.1 -9.5°
Enters shadow 16:19:26 11° 97° (E) 2,350 3.9 -9.8°
